Regional Weather Roundup
Issued by NWS

Home | Current Version | Previous Version | Graphics & Text | Print | Product List | Glossary On
Versions: 1 2 3 4 5 6 7 8 9 10 11 12 13 14 15 16 17 18 19 20 21 22 23 24 25 26 27 28 29 30 31 32 33 34 35 36 37 38 39 40 41 42 43 44 45 46 47 48 49 50
039
ASUS45 KBOU 280707
RWRCO

WEATHER ROUNDUP FOR COLORADO
NATIONAL WEATHER SERVICE DENVER/BOULDER CO
100 AM MDT THU APR 28 2016

NOTE: "FAIR" INDICATES FEW OR NO CLOUDS BELOW 12000 FEET WITH NO
SIGNIFICANT WEATHER AND/OR OBSTRUCTIONS TO VISIBILITY.

COZ001>005-013-030-031-280800-
...NORTHWEST COLORADO...

CITY           SKY/WX    TMP DP  RH WIND       PRES   REMARKS
CRAIG          FAIR      33  29  85 CALM      29.82F
HAYDEN         FAIR      36  30  80 E12       29.82F
MEEKER         FAIR      35  31  85 CALM      29.80F
MOUNT WERNER   NOT AVBL
STEAMBOAT SPGS CLOUDY    34  31  87 CALM      29.84S
WALDEN         CLOUDY    30  27  86 N7        29.88F WCI  23
$$

COZ006>008-011-280800-
...WEST CENTRAL VALLEYS...

CITY           SKY/WX    TMP DP  RH WIND       PRES   REMARKS
GRAND JUNCTION LGT RAIN  50  38  63 E9        29.73F
MONTROSE       FAIR      45  38  76 SE3       29.79F
EAGLE          FAIR      36  30  80 SE5       29.85F
RIFLE          FAIR      40  33  76 CALM      29.78F
DELTA          NOT AVBL
NUCLA          NOT AVBL
$$

COZ017>023-064>068-280800-
...SOUTHWEST COLORADO...

CITY           SKY/WX    TMP DP  RH WIND       PRES   REMARKS
DURANGO        CLOUDY    44  30  57 NW5       29.81S
CORTEZ         CLOUDY    49  35  58 SE9       29.78R
PAGOSA SPRINGS CLOUDY    41  28  59 NE5       29.85F
TELLURIDE      CLOUDY    36  30  78 E7        29.84F
WOLF CREEK PAS NOT AVBL
$$

COZ009-010-012-014-032>034-037-058>063-280800-
...CENTRAL COLORADO...

CITY           SKY/WX    TMP DP  RH WIND       PRES   REMARKS
ASPEN          MOCLDY    34  27  75 SW5       29.82F WCI  30
BUENA VISTA    CLOUDY    39  31  73 S7        29.88S
COPPER MTN     NOT AVBL
BERTHOUD PASS  CLOUDY    18   9  68 SE10G16   29.94S WCI   6
COTTONWOOD PAS CLOUDY    36  30  80 SE6       29.91S
GUNNISON       FAIR      39  30  70 N3        29.87F
KREMMLING      MOCLDY    32  28  86 CALM      29.87S
LEADVILLE      CLOUDY    27  21  78 CALM      29.88F
MONARCH PASS   FOG       25  23  93 E5        30.05F VSB 1   WCI  19
SALIDA         CLOUDY    41  36  81 SE9       29.95S
SUNLIGHT       CLOUDY    28  28 100 CALM      29.93S
WILKERSON PASS LGT SNOW  27  25  93 S6        29.97S WCI  20
$$

COZ069>075-280800-
...SAN LUIS VALLEY/SANGRE DE CRISTO MOUNTAINS...

CITY           SKY/WX    TMP DP  RH WIND       PRES   REMARKS
ALAMOSA        CLOUDY    43  32  65 SE14      29.86S
LA VETA PASS   LGT SNOW  30  28  93 MISG      29.97S
SAGUACHE       CLOUDY    41  32  70 E6        29.88F
$$

COZ035-036-038>040-280800-
...NORTHERN COLORADO FRONT RANGE...

CITY           SKY/WX    TMP DP  RH WIND       PRES   REMARKS
DENVER INTL AP CLOUDY    36  25  64 NE8       29.93S
DMNS CITY PARK   N/A     38  26  61 E8        29.94S
AURORA         MIX PCPN  36  28  75 E7        29.94S
FRONT RANGE AP NOT AVBL
ERIE MUNI ARPT CLOUDY    39  27  62 E7        29.94S
BOULDER MUN AP CLOUDY    37  27  65 E5        29.94S
CENTENNIAL     FLURRIES  36  27  69 SE10      29.93R
BROOMFIELD     CLOUDY    37  28  70 E9        29.94S
FORT COLLINS   CLOUDY    37  27  65 SE6       29.95R
LONGMONT       CLOUDY    41  28  61 E6        29.96S
$$

COZ041-046-047-076>085-087-088-280800-
...PIKES PEAK/PALMER DIVIDE AND SOUTHERN FOOTHILLS...

CITY           SKY/WX    TMP DP  RH WIND       PRES   REMARKS
COLO. SPRINGS  CLOUDY    40  30  67 NE9       29.91F
A. F. ACADEMY  CLOUDY    37  34  87 NW8       29.90S
SCHRIEVER AFB  NOT AVBL
ELLICOTT       NOT AVBL
FALCON         CLOUDY    34  28  80 NE8       29.92F WCI  27
FORT CARSON    CLOUDY    42  35  79 SE1       29.89F
LIMON          CLOUDY    35  26  69 N14       29.92S WCI  26
MONUMENT HILL  CLOUDY    32  30  93 NE5       29.93S WCI  27
TRINIDAD       FAIR      43  30  60 NW10      29.86R
$$

COZ042>045-048>051-090-091-280800-
...NORTHEAST COLORADO...

CITY           SKY/WX    TMP DP  RH WIND       PRES   REMARKS
GREELEY ARPT   CLOUDY    37  28  70 NE3       29.95S
AKRON          FAIR      31  26  82 N12       29.90F WCI  22
BURLINGTON     FAIR      37  29  72 N8        29.91S
WRAY           NOT AVBL
STERLING       CLOUDY    36  32  87 CALM      29.93R
HOLYOKE        NOT AVBL
FORT MORGAN    FAIR      32  28  85 NW5       29.94S WCI  27
$$

COZ086-089-092>099-280800-
...SOUTHEAST COLORADO...

CITY           SKY/WX    TMP DP  RH WIND       PRES   REMARKS
PUEBLO         CLOUDY    50  28  42 E15       29.88R
LA JUNTA       CLOUDY    48  28  46 NE18      29.90R
LAMAR          CLOUDY    44  33  65 NE5       29.89R
SPRINGFIELD      N/A     46  33  60 E12       29.89R
$$




USA.gov is the U.S. government's official web portal to all federal, state and local government web resources and services.